Location: Zagreb
(45.8000°N, 16.0000°E)
Time: 14:47:07
(UTC+02:00)

Vanguard 1 - Pass Details

Date: 09 August 2022
Orbit: 649 x 3832 km, 34.2° (Epoch: 25 September)

Event Time Altitude Azimuth Distance (km) Brightness Sun altitude
Rises 12:29:54 0° 282° (WNW) 7,953 14.6 59.3°
Reaches altitude 10° 12:36:48 10° 272° (W) 6,928 14.4 59.5°
Maximum altitude 12:53:02 26° 227° (SW) 5,096 14.4 59.9°
Drops below altitude 10° 13:05:46 10° 179° (S) 5,326 14.5 60.0°
Sets 13:10:12 0° 167° (SSE) 5,873 14.5 59.9°
